Weather History for Greenville Downtown, SC

Change the Weather History Date:

Sunday, October 10, 2010

  Actual Average Record
Temperature  
Mean Temperature 68 °F -  
Max Temperature 84 °F 70 °F 84 °F (2010)
Min Temperature 53 °F 52 °F 36 °F (2000)
Cooling Degree Days 2    
Growing Degree Days 18 (Base 50)    
Moisture  
Dew Point 49 °F    
Average Humidity 54    
Maximum Humidity 83    
Minimum Humidity 25    
Precipitation  
Precipitation 0.00 in - - ()
Sea Level Pressure  
Sea Level Pressure 30.00 in    
Wind  
Wind Speed 1 mph (SSW)    
Max Wind Speed 8 mph    
Max Gust Speed -    
Visibility 10 miles    
Events      
Averages and records for this station are not official NWS values.
T = Trace of Precipitation, MM = Missing Value Source: NWS Daily Summary

Daily Weather History Graph

Daily Weather History Graph

Search for Another Location

Airport:

Trip Planner

Search our weather history database for the weather conditions in past years. The results will help you decide how hot, cold, wet, or windy it might be!

Date:

Astronomy

Oct. 10, 2010 Rise Set
Actual Time 7:31 AM EDT 7:01 PM EDT
Civil Twilight 7:05 AM EDT 7:26 PM EDT
Nautical Twilight 6:36 AM EDT 7:55 PM EDT
Astronomical Twilight 6:07 AM EDT 8:24 PM EDT
Moon 10:49 AM EDT (10/10) 8:55 PM EDT (10/10)
Length of Visible Light 12h 20m
Length of Day
11h 30m
Waxing Crescent, 11% of the Moon is Illuminated
Oct 10
Waxing Crescent
Oct 14
First Quarter
Oct 22
Full
Oct 30
Last Quarter
Nov 6
New

Hourly Weather History & Observations

Time (EDT) Temp. Dew Point Humidity Pressure Visibility Wind Dir Wind Speed Gust Speed Precip Events Conditions
12:53 AM 60.1 °F 51.1 °F 72% 30.03 in 10.0 mi Calm Calm - N/A   Clear
1:53 AM 57.9 °F 51.1 °F 78% 30.03 in 10.0 mi Calm Calm - N/A   Clear
2:53 AM 59.0 °F 51.1 °F 75% 30.02 in 10.0 mi Calm Calm - N/A   Clear
3:53 AM 57.9 °F 51.1 °F 78% 30.01 in 10.0 mi Calm Calm - N/A   Clear
4:53 AM 57.0 °F 50.0 °F 77% 30.01 in 10.0 mi Calm Calm - N/A   Clear
5:53 AM 55.0 °F 48.9 °F 80% 30.02 in 10.0 mi Calm Calm - N/A   Clear
6:53 AM 54.0 °F 48.9 °F 83% 30.04 in 10.0 mi Calm Calm - N/A   Clear
7:53 AM 53.1 °F 48.0 °F 83% 30.04 in 10.0 mi Calm Calm - N/A   Clear
8:53 AM 59.0 °F 51.1 °F 75% 30.05 in 10.0 mi Calm Calm - N/A   Clear
9:53 AM 70.0 °F 53.1 °F 55% 30.05 in 10.0 mi Calm Calm - N/A   Clear
10:53 AM 75.9 °F 48.0 °F 37% 30.04 in 10.0 mi Calm Calm - N/A   Clear
11:53 AM 78.1 °F 48.0 °F 35% 30.03 in 10.0 mi Calm Calm - N/A   Clear
12:53 PM 80.1 °F 48.0 °F 32% 30.02 in 10.0 mi Variable 4.6 mph - N/A   Clear
1:53 PM 82.0 °F 46.9 °F 29% 29.99 in 10.0 mi Calm Calm - N/A   Clear
2:53 PM 82.0 °F 45.0 °F 27% 29.97 in 10.0 mi SW 5.8 mph - N/A   Clear
3:53 PM 82.9 °F 44.1 °F 25% 29.95 in 10.0 mi SE 4.6 mph - N/A   Clear
4:53 PM 82.9 °F 46.0 °F 27% 29.94 in 10.0 mi Calm Calm - N/A   Clear
5:53 PM 82.0 °F 46.9 °F 29% 29.94 in 10.0 mi SSW 8.1 mph - N/A   Clear
6:53 PM 78.1 °F 48.0 °F 35% 29.95 in 10.0 mi SSW 4.6 mph - N/A   Clear
7:53 PM 73.9 °F 48.9 °F 41% 29.96 in 10.0 mi SSW 3.5 mph - N/A   Clear
8:53 PM 71.1 °F 51.1 °F 49% 29.97 in 10.0 mi WSW 3.5 mph - N/A   Clear
9:53 PM 69.1 °F 52.0 °F 54% 29.97 in 10.0 mi Calm Calm - N/A   Clear
10:53 PM 66.0 °F 52.0 °F 60% 29.98 in 10.0 mi Calm Calm - N/A   Clear
11:53 PM 63.0 °F 53.1 °F 70% 29.98 in 10.0 mi Calm Calm - N/A   Clear